Regional Weather Roundup
Issued by NWS

Home | Current Version | Previous Version | Graphics & Text | Print | Product List | Glossary On
Versions: 1 2 3 4 5 6 7 8 9 10 11 12 13 14 15 16 17 18 19 20 21 22 23 24 25 26 27 28 29 30 31 32 33 34 35 36 37 38 39 40 41 42 43 44 45 46 47 48 49 50
000
ASUS43 KMPX 030810
RWRMN
WEATHER ROUNDUP FOR MINNESOTA
NATIONAL WEATHER SERVICE TWIN CITIES/CHANHASSEN MN
300 AM CDT THU SEP 03 2015


NOTE: "FAIR" INDICATES FEW OR NO CLOUDS BELOW 12,000 FEET WITH NO
SIGNIFICANT WEATHER AND/OR OBSTRUCTIONS TO VISIBILITY. N/A MEANS
CURRENT SKY AND/OR WEATHER CONDITIONS ARE NOT AVAILABLE.

MNZ060>063-068>070-030900-
   Twin Cities Metro

CITY           SKY/WX    TMP DP  RH WIND       PRES   REMARKS
TWIN CITIES    PTCLDY    68  66  93 E6        29.89F
ST PAUL        CLEAR     68  66  93 E5        29.90F
CRYSTAL        CLOUDY    70  66  87 E3        29.88F
BLAINE         CLEAR     66  66 100 E5        29.90S
LAKEVILLE      FOG       66  66 100 E5        29.89F VSB 1/4
EDEN PRAIRIE   CLOUDY    70  67  90 E6        29.88F
SOUTH ST PAUL  CLEAR     68  66  92 CALM      29.90S
LAKE ELMO      FAIR      64  64 100 NE3       29.92S
$$
MNZ001>005-007-008-013>017-022>024-027-028-030900-
   Northwest Minnesota

CITY           SKY/WX    TMP DP  RH WIND       PRES   REMARKS
BEMIDJI        CLEAR     64  63  97 SE7       29.90F
HALLOCK        CLEAR     70  66  88 SE10      29.79F
ROSEAU         CLEAR     70  63  78 S8        29.85S
WARROAD        CLEAR     68  64  88 S8        29.87S
THIEF RVR FALL CLEAR     66  64  94 SE9       29.84S
CROOKSTON      PTCLDY    70  66  88 SE10      29.81F
FOSSTON        CLEAR     66  63  88 SE9       29.86F
DETROIT LAKES  CLOUDY    70  68  94 SE14      29.88F FOG
MOORHEAD       CLEAR     72  68  88 SE10G17   29.81S
PARK RAPIDS    MOCLDY    67  64  90 SE6       29.90F
MAHNOMEN       CLOUDY    68  66  93 SE13      29.85S
$$
MNZ006-009>011-018-025>026-030900-
   North Central Minnesota

CITY           SKY/WX    TMP DP  RH WIND       PRES   REMARKS
BAUDETTE       CLEAR     64  62  93 SE8       29.89F
FLAG ISLAND    CLEAR     70  64  83 S15       29.87S
INTL FALLS     CLEAR     61  61 100 SE7       29.94S
WASKISH        CLEAR     63  61  94 CALM      29.90S
BIG FORK       CLOUDY    66  64  94 S7        29.95S
LONGVILLE      CLOUDY    64  63  94 SE3       29.93S FOG
GRAND RAPIDS     N/A     63  59  88 SE6       29.95F VSB 3/4
CRANE LAKE     CLEAR     52  52 100 CALM      29.98S
ORR            CLEAR     61  57  88 CALM      29.94F
COOK           CLEAR     59  57  94 CALM      29.97S
WALKER         CLOUDY    65  64  96 SE5       29.91F
$$
MNZ012-019>021-037-030900-
   Northeast Minnesota

CITY           SKY/WX    TMP DP  RH WIND       PRES   REMARKS
DULUTH         FOG       62  61  96 E8        29.97S VSB 1/4
ELY            CLEAR     54  52  94 CALM      29.99S
HIBBING        FOG       60  59  96 SE3       29.97S VSB 3/4
EVELETH        FOG       59  59 100 CALM      29.99S VSB 1/2
DULUTH HARBOR  FOG       59  57  94 E6        29.97S VSB 3/4
TWO HARBORS    HAZE      66  61  82 CALM      29.96S VSB 1/4
SILVER BAY     FOG       64  63  94 N3        29.96S VSB<1/4
GRAND MARAIS     N/A     55  53  93 CALM      29.97F
G MARAIS ARPRT CLEAR     50  46  87 N3        30.02S FOG
$$
MNZ029>031-032-039>041-046>048-054>057-064-030900-
   West Central Minnesota

CITY           SKY/WX    TMP DP  RH WIND       PRES   REMARKS
FERGUS FALLS   CLOUDY    72  72 100 SE12      29.83F FOG
WHEATON        CLOUDY    68  66  94 E15       29.83F FOG
MORRIS         CLOUDY    72  70  94 SE13      29.84S FOG
ALEXANDRIA     CLOUDY    68  66  93 SE12      29.90S
ELBOW LAKE     CLOUDY    70  69  97 SE10      29.84F FOG
WADENA         CLOUDY    70  66  88 SE8       29.89S
GLENWOOD       CLOUDY    68  66  94 E8        29.89F FOG
APPLETON       CLOUDY    72  68  88 E10       29.83S FOG
BENSON         CLOUDY    70  66  88 SE6       29.85F FOG
ORTONVILLE     CLOUDY    70  68  94 SE10      29.82F
MADISON          N/A     70  70 100 SE7       29.83S FOG
WILLMAR        CLOUDY    72  70  94 E8        29.88F FOG
$$
MNZ033>034-036-042>043-049>051-058-059-030900-
   Central Minnesota

CITY           SKY/WX    TMP DP  RH WIND       PRES   REMARKS
ST CLOUD       CLEAR     67  65  93 E6        29.90F
SAUK CENTRE    PTSUNNY   65  64  97 E3        29.90S
PAYNESVILLE    CLOUDY    67  67  97 NE7       29.90S
AITKIN         CLOUDY    64  59  82 E3        29.92F
PINE RIVER     CLOUDY    64  64 100 SE10      29.96S
BRAINERD       MOCLDY    66  65  96 VRB7      29.92F
STAPLES        CLOUDY    68  64  88 E6        29.91S
LONG PRAIRIE   CLOUDY    66  64  94 E8        29.90F
LITTLE FALLS   CLOUDY    68  63  83 SE5       29.90F
LITCHFIELD     CLOUDY    70  70 100 E7        29.90S FOG
BUFFALO        PTCLDY    67  64  90 NE5       29.90S
MAPLE LAKE     CLEAR     68  67  96 E7        29.90F
$$
MNZ037-044-045-052-053-030900-
   East Central Minnesota

CITY           SKY/WX    TMP DP  RH WIND       PRES   REMARKS
PRINCETON      PTCLDY    68  66  94 CALM      29.91F
MORA           CLEAR     63  63 100 CALM      29.94S FOG
CAMBRIDGE      PTCLDY    68  61  77 CALM      29.89F
RUSH CITY      PTCLDY    65  63  95 NE3       29.92F
MOOSE LAKE     FOG       59  59 100 NE3       29.94S VSB 1/2
HINCKLEY       FAIR      63  63 100 CALM      29.93F
CLOQUET        FOG       63  61  94 E3        29.97S VSB 1/4
MCGREGOR       CLOUDY    63  61  94 E5        29.95F VSB 1/2
$$
MNZ071>073-080-081-089-090-097-098-030900-
   Southwest Minnesota

CITY           SKY/WX    TMP DP  RH WIND       PRES   REMARKS
MONTEVIDEO     CLOUDY    70  70 100 SE7       29.86F FOG
GRANITE FALLS  CLOUDY    70  69  98 E5        29.86F FOG
CANBY          CLEAR     69  67  95 SE5       29.84F FOG
MARSHALL       CLEAR     70  64  83 SE8       29.85F
REDWOOD FALLS  FOG       70  69  97 E6        29.85F VSB 1/4
OLIVIA         CLOUDY    68  64  88 E7        29.86S FOG
PIPESTONE      CLEAR     72  68  88 SE7       29.86S FOG
WINDOM         CLEAR     70  68  94 CALM      29.87F
WORTHINGTON    CLEAR     70  66  88 SE3       29.87S
JACKSON        CLEAR     68  66  94 SE5       29.88S FOG
TRACY          CLEAR     69  69  98 S6        29.86S FOG
SLAYTON        FOG       66  66 100 CALM      29.87F VSB 1/4
$$
MNZ065>067-074>077-082>085-091>093-030900-
   South Central Minnesota

CITY           SKY/WX    TMP DP  RH WIND       PRES   REMARKS
MANKATO        CLEAR     70  68  94 SE6       29.88S
NEW ULM        CLEAR     70  70 100 E3        29.87S FOG
ST JAMES       CLEAR     70  70 100 SE5       29.88S
FAIRMONT       CLEAR     70  57  64 S6        29.88
GLENCOE        CLOUDY    69  69  99 E6        29.88F FOG
FARIBAULT      FOG       66  66 100 CALM      29.90S VSB 1/4
OWATONNA       CLEAR     70  66  88 SE5       29.90S FOG
WASECA         CLEAR     64  63  94 E3        29.90F FOG
ALBERT LEA     CLEAR     72  70  94 CALM      29.90S
$$
MNZ078>079-086>088-094>096-030900-
   Southeast Minnesota

CITY           SKY/WX    TMP DP  RH WIND       PRES   REMARKS
ROCHESTER      CLEAR     66  65  96 S5        29.92F FOG
RED WING       CLOUDY    70  66  88 CALM      29.89S FOG
STANTON        FOG       66  64  93 CALM      29.89S VSB 1/4
DODGE CENTER   CLEAR     66  66 100 CALM      29.91F FOG
WINONA         CLEAR     72  70  94 CALM      29.89F FOG
AUSTIN         CLEAR     70  66  88 CALM      29.91S FOG
PRESTON        PTCLDY    67  65  94 CALM      29.93S FOG
$$
ABBREVIATIONS USED IN REMARKS
   TC - TEMPERATURES IN CELSIUS
  WCI - WIND CHILL INDEX
   HX - HEAT INDEX
  VSB - VISIBILITY
$$



USA.gov is the U.S. government's official web portal to all federal, state and local government web resources and services.